Weather in Grachevka

Russia / Orenburg Oblast     52°55′14″N   52°52′04″E
temp.,
°C
wind,
m/s
gust,
m/s
humid.,
%
clouds,
%
prec.,
mm/h
press.,
hPa
HPBL,
m
27 february, sat
sat2723:00−15sse81492100 0.1 1016468
02:00−13sse91694100 0.6 1010552
05:00−11sse91594100 5.8 1005645
08:00−8sse71395100 2.6 1002478
11:00−5sse5895100 3.3 1001334
14:00−1sse3599100 0.8 1000244
17:000sw48100100 1.6 1000348
20:000sw5998100 0.3 998400
28 february, sun
sun2823:000sw5899100 1.8 998392
02:000sw4798100 1.1 997365
05:00−3nw4698100 1.9 998204
08:00−10nw589598 0.5 999238
11:00−11nw589499 0.7 1001306
14:00−9nw5893100 0.1 1003390
17:00−9nw5891100 0.1 1006478
20:00−12nw489496 0.1 1009298
1 march, mon
mon123:00−13nw379595 0.3 1011211
02:00−14wnw369688 0.1 1013150
05:00−15nw369687 0.3 1015162
08:00−16nw359688 0.1 1017167
11:00−15nw359485 0.3 1019254
14:00−14nw349295 0.1 1020330
17:00−14nw369398 0.1 1021333
20:00−19wnw339885 0.0 102229
2 march, tue
tue223:00−22wnw229955 0.0 102320
02:00−23w2310043 0.0 102220
05:00−23sw2310049 0.0 102120
08:00−22s3410077 0.0 101868
11:00−16ssw5109589 0.0 1016315
14:00−12ssw71194100 0.1 1013426
17:00−10ssw81394100 0.9 1010630
20:00−7ssw71494100 1.3 1007707
3 march, wed
wed323:00−5ssw71395100 2.3 1005639
02:00−4ssw61296100 1.1 1002568
05:00−4ssw41097100 1.9 1000380
08:00−5sw379794 0.3 999155
11:00−3w369693 0.6 1000290
14:00−3wnw6893100 0.4 1001505
17:00−3wnw6991100 0.6 1002595
20:00−4nw4994100 0.1 1004580